Home   Weather   Hohhot   Past weeks

Flag for China Past Weather in Hohhot, Inner Mongolia, China — Yesterday and Last 2 Weeks

Now
36 °F

Passing clouds.


Feels Like: 36 °F
Forecast: 37 / 58 °F
Wind: 1 mph from Southeast

Location: Hohhot Airport

Current Time: Apr 25, 2017 at 5:35:04 am

Latest Report: Apr 25, 2017 at 5:00 am


Visibility: N/A

Pressure: 30.18 "Hg (26.48 "Hg at 1053m altitude)

Humidity: 30%

Dew Point: 7 °F

Location of HohhotLocation

Past Weather in Hohhot — Graph

°F

Hohhot Temperature Yesterday

Maximum temperature yesterday: 61 °F (at 3:00 pm)
Minimum temperature yesterday: 37 °F (at 3:00 am)
Average temperature yesterday: 49 °F

High & Low Weather Summary for the Past Weeks

 TemperatureHumidityPressure
High72 °F (Apr 22, 3:00 pm)93% (Apr 10, 4:00 am)30.18 "Hg (Apr 10, 4:00 am)
Low27 °F (Apr 12, 6:00 am)7% (Apr 22, 3:00 pm)29.56 "Hg (Apr 17, 2:00 pm)
Average50 °F33%29.91 "Hg
* Reported Apr 10 4:00 am — Apr 25 4:00 am, Hohhot, Weather by CustomWeather, © 2017

Note: Actual official high and low records may vary slightly from our data, if they occured in-between our weather recording intervals... More about our weather records

Advertising

Hohhot Weather History for the Previous 24 Hours

Scroll right to see more
 ConditionsComfort  
Time TempWeatherWind HumidityBarometerVisibility
4:00 am
Tue, Apr 25
37 °FPassing clouds.3 mph30%30.18 "HgN/A
3:00 am37 °FPassing clouds.1 mph26%30.18 "HgN/A
2:00 am39 °FPassing clouds.6 mph22%30.18 "HgN/A
1:00 am41 °FPassing clouds.3 mph19%30.18 "HgN/A
12:00 am41 °FPassing clouds.6 mph17%30.18 "HgN/A
11:00 pm
Mon, Apr 24
43 °FPassing clouds.8 mph15%30.15 "HgN/A
10:00 pm46 °FClear.8 mph14%30.15 "Hg10 mi
9:00 pm48 °FPassing clouds.8 mph12%30.12 "HgN/A
8:00 pm50 °FClear.8 mph9%30.09 "Hg10 mi
7:00 pm52 °FPassing clouds.8 mph8%30.07 "HgN/A
6:00 pm55 °FPassing clouds.15 mph8%30.04 "HgN/A
5:00 pm57 °FSunny.20 mph8%30.01 "Hg10 mi
4:00 pm59 °FPassing clouds.17 mph8%30.01 "HgN/A
3:00 pm61 °FPassing clouds.17 mph7%30.01 "HgN/A
2:00 pm59 °FPassing clouds.17 mph7%30.04 "HgN/A
1:00 pm59 °FPassing clouds.17 mph7%30.04 "HgN/A
12:00 pm59 °FPassing clouds.15 mph7%30.04 "HgN/A
11:00 am55 °FPassing clouds.13 mph8%30.04 "HgN/A
10:00 am52 °FPassing clouds.8 mph10%30.07 "HgN/A
9:00 am48 °FSunny.1 mph14%30.07 "Hg10 mi
8:00 am43 °FSunny.10 mph15%30.07 "Hg10 mi
7:00 am41 °FSunny.10 mph13%30.04 "Hg10 mi
6:00 am39 °FSunny.8 mph14%30.01 "Hg10 mi
5:00 am39 °FClear.10 mph17%29.98 "Hg10 mi
Weather by CustomWeather, © 2017

See weather overviewHow to use our weather pages